TimeCST,TemperatureF,Dew PointF,Humidity,Sea Level PressureIn,VisibilityMPH,Wind Direction,Wind SpeedMPH,Gust SpeedMPH,PrecipitationIn,Events,Conditions,WindDirDegrees,DateUTC
12:56 AM,41.0,30.0,65,29.60,10.0,West,29.9,41.4,0.01,,Mostly Cloudy,280,2013-11-18 06:56:00
1:56 AM,39.0,30.0,70,29.65,10.0,West,26.5,38.0,0.01,,Overcast,280,2013-11-18 07:56:00
2:32 AM,37.4,28.4,70,29.60,10.0,West,24.2,38.0,0.01,,Overcast,280,2013-11-18 08:32:00
2:56 AM,37.9,30.0,73,29.69,10.0,West,24.2,36.8,0.01,,Overcast,280,2013-11-18 08:56:00
3:56 AM,36.0,28.0,73,29.72,10.0,WNW,26.5,39.1,0.01,,Overcast,290,2013-11-18 09:56:00
4:56 AM,35.1,27.0,72,29.72,10.0,WNW,29.9,39.1,0.01,,Overcast,290,2013-11-18 10:56:00
5:56 AM,35.1,27.0,72,29.75,10.0,WNW,21.9,33.4,0.01,,Overcast,290,2013-11-18 11:56:00
6:56 AM,34.0,25.0,70,29.78,10.0,WNW,27.6,36.8,0.01,,Overcast,290,2013-11-18 12:56:00
7:56 AM,34.0,25.0,70,29.83,10.0,WNW,27.6,35.7,0.01,,Overcast,300,2013-11-18 13:56:00
8:56 AM,33.1,24.1,70,29.88,10.0,WNW,21.9,41.4,0.01,,Overcast,290,2013-11-18 14:56:00
9:56 AM,33.1,23.0,66,29.93,10.0,WNW,21.9,36.8,0.00,Rain,Light Rain,290,2013-11-18 15:56:00
10:18 AM,32.0,23.0,69,29.87,10.0,WNW,20.7,32.2,0.01,Snow,Light Snow,290,2013-11-18 16:18:00
10:56 AM,33.1,23.0,66,29.97,10.0,WNW,20.7,31.1,0.01,Rain,Light Rain,300,2013-11-18 16:56:00
11:56 AM,34.0,21.9,61,29.99,10.0,WNW,24.2,29.9,0.01,,Overcast,290,2013-11-18 17:56:00
12:56 PM,35.1,21.9,59,30.01,10.0,WNW,25.3,31.1,0.01,,Overcast,300,2013-11-18 18:56:00
1:56 PM,35.1,21.0,57,30.04,10.0,WNW,21.9,29.9,0.01,,Overcast,300,2013-11-18 19:56:00
2:56 PM,34.0,21.0,59,30.08,10.0,NW,17.3,27.6,N/A,,Overcast,310,2013-11-18 20:56:00
3:56 PM,34.0,21.0,59,30.12,10.0,WNW,16.1,28.8,0.01,,Overcast,300,2013-11-18 21:56:00
4:56 PM,34.0,21.0,59,30.15,10.0,NW,16.1,28.8,0.01,,Overcast,310,2013-11-18 22:56:00
5:56 PM,33.1,19.9,59,30.18,10.0,WNW,17.3,23.0,N/A,,Overcast,300,2013-11-18 23:56:00
6:56 PM,33.1,19.9,59,30.20,10.0,NW,20.7,26.5,0.01,,Overcast,310,2013-11-19 00:56:00
7:56 PM,32.0,21.9,66,30.22,10.0,NW,15.0,-,N/A,,Mostly Cloudy,310,2013-11-19 01:56:00
8:56 PM,30.9,21.9,69,30.25,10.0,NW,11.5,-,N/A,,Scattered Clouds,310,2013-11-19 02:56:00
9:56 PM,30.0,21.9,72,30.26,10.0,NW,9.2,-,0.01,,Clear,310,2013-11-19 03:56:00
10:56 PM,28.9,21.0,72,30.29,10.0,WNW,9.2,-,N/A,,Clear,300,2013-11-19 04:56:00
11:56 PM,28.0,21.0,75,30.30,10.0,WNW,5.8,-,N/A,,Clear,300,2013-11-19 05:56:00